�������l�o���
Date,Time,MP-1(��Sv/h),MP-2(��Sv/h),MP-3(��Sv/h),MP-4(��Sv/h),MP-5(��Sv/h),MP-6(��Sv/h),MP-7(��Sv/h),MP-8(��Sv/h),����,����(m/s),���J
2021/03/19,00:00,0.641,0.945,0.593,1.181,0.828,0.373,0.659,0.619,�k��,2.6,��
2021/03/19,00:10,0.641,0.943,0.594,1.182,0.829,0.373,0.660,0.619,�k��,2.8,��
2021/03/19,00:20,0.641,0.943,0.594,1.184,0.828,0.374,0.659,0.619,�k��,1.7,��
2021/03/19,00:30,0.642,0.944,0.595,1.182,0.826,0.373,0.659,0.619,�k�k��,2.2,��
2021/03/19,00:40,0.641,0.945,0.596,1.181,0.828,0.374,0.660,0.620,�k�k��,3.2,��
2021/03/19,00:50,0.643,0.945,0.595,1.184,0.827,0.374,0.661,0.621,�k�k��,3.0,��
2021/03/19,01:00,0.642,0.944,0.594,1.184,0.827,0.373,0.659,0.618,�k�k��,3.2,��
2021/03/19,01:10,0.642,0.944,0.595,1.180,0.826,0.373,0.661,0.620,�k�k��,2.6,��
2021/03/19,01:20,0.642,0.943,0.595,1.182,0.828,0.375,0.660,0.619,�k��,2.3,��
2021/03/19,01:30,0.642,0.942,0.595,1.182,0.827,0.374,0.660,0.618,�k��,2.0,��
2021/03/19,01:40,0.641,0.944,0.595,1.180,0.826,0.374,0.659,0.618,�k��,1.9,��
2021/03/19,01:50,0.642,0.943,0.594,1.181,0.827,0.373,0.660,0.618,�k��,2.2,��
2021/03/19,02:00,0.640,0.944,0.595,1.184,0.828,0.374,0.660,0.618,�k��,3.0,��
2021/03/19,02:10,0.639,0.944,0.593,1.183,0.828,0.373,0.660,0.619,�k��,3.0,��
2021/03/19,02:20,0.640,0.943,0.596,1.181,0.828,0.373,0.660,0.619,�k��,3.2,��
2021/03/19,02:30,0.641,0.942,0.595,1.182,0.829,0.373,0.660,0.619,�k��,4.4,��
2021/03/19,02:40,0.641,0.942,0.594,1.182,0.828,0.374,0.660,0.617,�k��,3.4,��
2021/03/19,02:50,0.644,0.943,0.595,1.182,0.828,0.374,0.659,0.620,�k��,3.5,��
2021/03/19,03:00,0.641,0.944,0.595,1.183,0.828,0.374,0.660,0.618,�k��,2.0,��
2021/03/19,03:10,0.643,0.942,0.595,1.182,0.825,0.375,0.660,0.618,�k�k��,3.5,��
2021/03/19,03:20,0.641,0.944,0.595,1.183,0.829,0.374,0.661,0.620,�k�k��,5.9,��
2021/03/19,03:30,0.640,0.941,0.594,1.183,0.826,0.374,0.659,0.617,�k�k��,5.9,��
2021/03/19,03:40,0.640,0.943,0.596,1.184,0.827,0.375,0.661,0.619,�k�k��,6.0,��
2021/03/19,03:50,0.642,0.946,0.596,1.181,0.828,0.375,0.659,0.619,�k�k��,7.7,��
2021/03/19,04:00,0.642,0.944,0.595,1.184,0.828,0.375,0.660,0.619,�k,7.8,��
2021/03/19,04:10,0.642,0.942,0.596,1.182,0.830,0.372,0.660,0.621,�k,7.7,��
2021/03/19,04:20,0.643,0.943,0.596,1.179,0.828,0.374,0.663,0.619,�k�k��,6.6,��
2021/03/19,04:30,0.642,0.945,0.596,1.184,0.827,0.375,0.659,0.619,�k�k��,6.6,��
2021/03/19,04:40,0.642,0.944,0.595,1.182,0.830,0.374,0.660,0.620,�k�k��,6.8,��
2021/03/19,04:50,0.641,0.944,0.595,1.182,0.830,0.373,0.661,0.619,�k�k��,5.6,��
2021/03/19,05:00,0.641,0.942,0.594,1.182,0.829,0.374,0.660,0.620,�k�k��,5.9,��
2021/03/19,05:10,0.641,0.945,0.594,1.182,0.828,0.375,0.660,0.620,�k��,5.8,��
2021/03/19,05:20,0.641,0.943,0.596,1.183,0.829,0.373,0.660,0.618,�k��,4.6,��
2021/03/19,05:30,0.641,0.943,0.595,1.181,0.828,0.373,0.661,0.619,�k�k��,4.2,��
2021/03/19,05:40,0.641,0.944,0.595,1.184,0.828,0.373,0.660,0.619,�k�k��,5.0,��
2021/03/19,05:50,0.642,0.945,0.595,1.184,0.828,0.374,0.661,0.619,�k�k��,4.8,��
2021/03/19,06:00,0.640,0.944,0.595,1.183,0.827,0.373,0.660,0.619,�k�k��,5.3,��
2021/03/19,06:10,0.641,0.944,0.594,1.184,0.827,0.374,0.661,0.620,�k�k��,6.0,��
2021/03/19,06:20,0.643,0.945,0.596,1.185,0.829,0.374,0.661,0.620,�k,5.6,��
2021/03/19,06:30,0.640,0.944,0.595,1.184,0.828,0.373,0.661,0.620,�k�k��,6.0,��
2021/03/19,06:40,0.642,0.943,0.595,1.182,0.828,0.374,0.662,0.620,�k�k��,6.2,��
2021/03/19,06:50,0.643,0.945,0.595,1.184,0.828,0.374,0.660,0.620,�k�k��,5.9,��
2021/03/19,07:00,0.643,0.944,0.595,1.185,0.830,0.372,0.660,0.620,�k�k��,4.9,��
2021/03/19,07:10,0.642,0.946,0.596,1.183,0.829,0.373,0.660,0.618,�k,5.6,��
2021/03/19,07:20,0.641,0.943,0.595,1.184,0.829,0.374,0.659,0.620,�k�k��,5.4,��
2021/03/19,07:30,0.642,0.946,0.596,1.182,0.827,0.372,0.661,0.620,�k�k��,4.7,��
2021/03/19,07:40,0.642,0.943,0.596,1.185,0.829,0.373,0.660,0.619,�k,3.8,��
2021/03/19,07:50,0.642,0.943,0.595,1.183,0.830,0.373,0.661,0.617,�k,4.2,��
2021/03/19,08:00,0.643,0.945,0.595,1.184,0.826,0.372,0.661,0.620,�k,4.0,��
2021/03/19,08:10,0.644,0.943,0.594,1.183,0.827,0.371,0.661,0.619,�k�k��,3.5,��
2021/03/19,08:20,0.643,0.943,0.596,1.185,0.828,0.372,0.660,0.618,�k,3.2,��
2021/03/19,08:30,0.640,0.943,0.595,1.184,0.828,0.373,0.661,0.619,�k,3.4,��
2021/03/19,08:40,0.642,0.944,0.595,1.185,0.828,0.372,0.659,0.620,�k�k��,3.3,��
2021/03/19,08:50,0.642,0.946,0.595,1.183,0.829,0.372,0.659,0.620,�k�k��,3.5,��
2021/03/19,09:00,0.640,0.946,0.593,1.183,0.828,0.372,0.660,0.619,�k�k��,4.4,��
2021/03/19,09:10,0.643,0.943,0.596,1.184,0.829,0.372,0.660,0.620,�k�k��,4.4,��
2021/03/19,09:20,0.643,0.946,0.595,1.184,0.828,0.373,0.658,0.619,�k�k��,4.6,��
2021/03/19,09:30,0.645,0.944,0.594,1.184,0.829,0.373,0.661,0.619,�k��,4.5,��
2021/03/19,09:40,0.642,0.945,0.595,1.184,0.829,0.375,0.659,0.619,�k�k��,5.1,��
2021/03/19,09:50,0.641,0.945,0.594,1.183,0.828,0.373,0.657,0.620,�k��,5.0,��
2021/03/19,10:00,0.642,0.946,0.594,1.183,0.830,0.374,0.659,0.617,�k�k��,5.0,��
2021/03/19,10:10,0.643,0.944,0.597,1.187,0.828,0.374,0.658,0.618,�k�k��,5.5,��
2021/03/19,10:20,0.642,0.943,0.596,1.184,0.828,0.374,0.658,0.619,�k��,5.1,��
2021/03/19,10:30,0.643,0.943,0.595,1.184,0.828,0.373,0.659,0.617,�k�k��,5.6,��
2021/03/19,10:40,0.641,0.943,0.595,1.186,0.828,0.375,0.659,0.619,�k��,5.3,��
2021/03/19,10:50,0.642,0.945,0.596,1.185,0.830,0.375,0.659,0.619,�k�k��,4.8,��
2021/03/19,11:00,0.644,0.944,0.595,1.184,0.829,0.374,0.660,0.618,�k�k��,5.9,��
2021/03/19,11:10,0.642,0.944,0.598,1.185,0.829,0.372,0.659,0.618,�k�k��,6.1,��
2021/03/19,11:20,0.640,0.946,0.597,1.186,0.828,0.372,0.659,0.619,�k�k��,5.5,��
2021/03/19,11:30,0.639,0.944,0.595,1.184,0.828,0.373,0.660,0.619,�k�k��,5.8,��
2021/03/19,11:40,0.643,0.945,0.595,1.182,0.827,0.372,0.660,0.618,�k��,6.7,��
2021/03/19,11:50,0.642,0.944,0.595,1.186,0.830,0.373,0.659,0.617,�k��,6.2,��
2021/03/19,12:00,0.641,0.944,0.596,1.188,0.829,0.373,0.660,0.616,�k�k��,5.3,��
2021/03/19,12:10,0.642,0.943,0.594,1.186,0.829,0.373,0.660,0.619,�k��,5.7,��
2021/03/19,12:20,0.641,0.944,0.595,1.185,0.829,0.374,0.661,0.618,�k��,5.2,��
2021/03/19,12:30,0.642,0.945,0.595,1.186,0.829,0.375,0.661,0.619,�k��,5.2,��
2021/03/19,12:40,0.641,0.942,0.594,1.184,0.830,0.376,0.660,0.619,�k��,6.0,��
2021/03/19,12:50,0.642,0.944,0.595,1.185,0.829,0.376,0.659,0.619,�k��,6.3,��
2021/03/19,13:00,0.642,0.945,0.593,1.183,0.830,0.375,0.659,0.620,�k��,5.2,��
2021/03/19,13:10,0.642,0.944,0.592,1.186,0.828,0.375,0.662,0.620,�k��,5.7,��
2021/03/19,13:20,0.642,0.944,0.594,1.187,0.832,0.376,0.659,0.617,�k��,4.9,��
2021/03/19,13:30,0.645,0.944,0.594,1.186,0.828,0.375,0.659,0.617,�k��,4.9,��
2021/03/19,13:40,0.643,0.945,0.592,1.186,0.831,0.375,0.659,0.616,���k��,3.9,��
2021/03/19,13:50,0.642,0.943,0.594,1.186,0.829,0.375,0.659,0.617,���k��,4.0,��
2021/03/19,14:00,0.642,0.946,0.595,1.184,0.829,0.374,0.660,0.619,���k��,3.5,��
2021/03/19,14:10,0.642,0.948,0.594,1.187,0.831,0.374,0.661,0.619,���k��,3.8,��
2021/03/19,14:20,0.642,0.946,0.594,1.185,0.831,0.374,0.660,0.619,���k��,3.8,��
2021/03/19,14:30,0.642,0.945,0.595,1.185,0.828,0.375,0.660,0.617,���k��,2.8,��
2021/03/19,14:40,0.642,0.948,0.594,1.187,0.831,0.375,0.658,0.620,��,3.0,��
2021/03/19,14:50,0.644,0.949,0.594,1.187,0.830,0.376,0.659,0.618,���k��,3.6,��
2021/03/19,15:00,0.643,0.948,0.595,1.185,0.832,0.375,0.659,0.618,��,3.3,��
2021/03/19,15:10,0.640,0.950,0.596,1.188,0.830,0.373,0.660,0.618,��,3.7,��
2021/03/19,15:20,0.641,0.947,0.595,1.187,0.829,0.376,0.661,0.618,��,3.4,��
2021/03/19,15:30,0.643,0.948,0.596,1.187,0.829,0.375,0.659,0.616,��,2.6,��
2021/03/19,15:40,0.645,0.949,0.594,1.188,0.832,0.376,0.660,0.617,��,2.2,��
2021/03/19,15:50,0.642,0.948,0.596,1.185,0.830,0.375,0.658,0.618,���k��,2.6,��
2021/03/19,16:00,0.642,0.949,0.594,1.185,0.830,0.375,0.658,0.617,��,2.9,��
2021/03/19,16:10,0.643,0.950,0.597,1.188,0.832,0.375,0.659,0.619,��,2.6,��
2021/03/19,16:20,0.642,0.950,0.595,1.187,0.830,0.375,0.658,0.617,��,1.9,��
2021/03/19,16:30,0.640,0.950,0.596,1.184,0.831,0.374,0.660,0.619,���쓌,2.2,��
2021/03/19,16:40,0.640,0.949,0.596,1.184,0.829,0.374,0.661,0.620,��,1.9,��
2021/03/19,16:50,0.642,0.950,0.594,1.184,0.830,0.376,0.658,0.619,��,2.0,��
2021/03/19,17:00,0.643,0.948,0.596,1.186,0.829,0.375,0.660,0.621,���쓌,2.2,��
2021/03/19,17:10,0.642,0.951,0.595,1.186,0.831,0.376,0.662,0.621,���쓌,2.3,��
2021/03/19,17:20,0.644,0.951,0.596,1.185,0.831,0.375,0.661,0.621,���쓌,1.9,��
2021/03/19,17:30,0.642,0.949,0.596,1.186,0.830,0.375,0.661,0.620,�쓌,1.7,��
2021/03/19,17:40,0.642,0.949,0.596,1.186,0.831,0.374,0.661,0.619,�쓌,1.7,��
2021/03/19,17:50,0.643,0.950,0.597,1.185,0.832,0.374,0.660,0.619,��,1.7,��
2021/03/19,18:00,0.643,0.949,0.597,1.186,0.833,0.374,0.662,0.621,��,1.2,��
2021/03/19,18:10,0.644,0.951,0.596,1.186,0.832,0.374,0.662,0.619,��,1.5,��
2021/03/19,18:20,0.642,0.951,0.596,1.186,0.833,0.374,0.661,0.620,��쓌,1.9,��
2021/03/19,18:30,0.641,0.950,0.593,1.184,0.832,0.373,0.661,0.619,��,2.5,��
2021/03/19,18:40,0.642,0.951,0.596,1.186,0.831,0.373,0.663,0.620,��,0.8,��
2021/03/19,18:50,0.641,0.950,0.597,1.185,0.830,0.373,0.661,0.619,��쐼,1.1,��
2021/03/19,19:00,0.644,0.947,0.595,1.186,0.833,0.373,0.661,0.619,��쐼,0.9,��
2021/03/19,19:10,0.644,0.950,0.596,1.182,0.832,0.374,0.662,0.619,�쐼,0.9,��
2021/03/19,19:20,0.643,0.949,0.597,1.184,0.830,0.374,0.660,0.618,��쐼,0.8,��
2021/03/19,19:30,0.643,0.952,0.596,1.185,0.829,0.374,0.660,0.620,-,CALM,��
2021/03/19,19:40,0.643,0.951,0.596,1.186,0.831,0.374,0.660,0.619,��,2.5,��
2021/03/19,19:50,0.642,0.948,0.597,1.185,0.831,0.374,0.661,0.619,��쐼,2.3,��
2021/03/19,20:00,0.642,0.949,0.595,1.185,0.833,0.374,0.660,0.618,��쐼,3.0,��
2021/03/19,20:10,0.644,0.949,0.597,1.186,0.832,0.374,0.659,0.619,��쐼,3.2,��
2021/03/19,20:20,0.644,0.949,0.598,1.184,0.833,0.374,0.660,0.618,��쐼,2.8,��
2021/03/19,20:30,0.640,0.950,0.596,1.184,0.833,0.374,0.659,0.620,��쐼,2.6,��
2021/03/19,20:40,0.641,0.949,0.593,1.183,0.829,0.372,0.658,0.619,��쐼,3.5,��
2021/03/19,20:50,0.641,0.948,0.595,1.185,0.832,0.374,0.661,0.619,��쐼,3.7,��
2021/03/19,21:00,0.643,0.948,0.596,1.184,0.833,0.374,0.660,0.618,��쐼,4.1,��
2021/03/19,21:10,0.643,0.948,0.597,1.184,0.832,0.372,0.660,0.619,��쐼,3.9,��
2021/03/19,21:20,0.642,0.948,0.597,1.186,0.832,0.374,0.661,0.619,��,3.8,��
2021/03/19,21:30,0.643,0.944,0.596,1.184,0.832,0.372,0.659,0.621,��쐼,1.1,��
2021/03/19,21:40,0.642,0.949,0.594,1.186,0.832,0.374,0.659,0.618,��쐼,1.4,��
2021/03/19,21:50,0.642,0.949,0.596,1.183,0.834,0.375,0.659,0.620,�쐼,2.5,��
2021/03/19,22:00,0.641,0.949,0.597,1.184,0.832,0.375,0.660,0.621,�쐼,1.7,��
2021/03/19,22:10,0.641,0.949,0.596,1.184,0.832,0.375,0.659,0.619,�쐼,2.2,��
2021/03/19,22:20,0.642,0.947,0.597,1.184,0.831,0.373,0.660,0.620,�쐼,2.0,��
2021/03/19,22:30,0.642,0.947,0.595,1.186,0.830,0.373,0.659,0.619,���쐼,2.3,��
2021/03/19,22:40,0.642,0.947,0.596,1.183,0.832,0.374,0.660,0.618,��,2.3,��
2021/03/19,22:50,0.641,0.947,0.595,1.185,0.832,0.374,0.660,0.618,��,1.5,��
2021/03/19,23:00,0.643,0.946,0.596,1.186,0.831,0.373,0.661,0.620,���쐼,0.9,��
2021/03/19,23:10,0.641,0.947,0.595,1.186,0.832,0.374,0.659,0.619,���쐼,1.5,��
2021/03/19,23:20,0.640,0.946,0.597,1.185,0.830,0.374,0.659,0.620,�쐼,2.0,��
2021/03/19,23:30,0.642,0.946,0.597,1.187,0.831,0.374,0.659,0.619,���쐼,2.0,��
2021/03/19,23:40,0.642,0.946,0.596,1.183,0.832,0.375,0.661,0.621,�쐼,2.2,��
2021/03/19,23:50,0.642,0.946,0.596,1.187,0.832,0.375,0.661,0.617,�쐼,2.6,��
